DW3839 Weather Reports


Display with metric or nautical units.
time (UTC)temp
F
wind
direction
speed
MPH
gust
MPH
rain 1hr
in
rain 24hr
in
rain mn
in
humidity
%
barometer
mb
20260509224107 69 19 0.0 0.0 0.00 0.00 0.00 70 1007.7
20260509223605 70 17 0.0 1.0 0.00 0.00 0.00 69 1007.7
20260509223107 70 17 0.0 1.0 0.00 0.00 0.00 68 1007.7
20260509222610 70 250 0.0 0.0 0.00 0.00 0.00 68 1007.8
20260509222109 70 235 0.0 0.0 0.00 0.00 0.00 64 1007.8
20260509221613 71 235 0.0 0.0 0.00 0.00 0.00 63 1007.8
20260509221113 71 235 0.0 1.0 0.00 0.00 0.00 64 1007.7
20260509220520 71 255 0.0 1.0 0.00 0.00 0.00 64 1007.7
20260509220119 71 281 0.0 1.0 0.00 0.00 0.00 66 1007.7
20260509215506 71 281 0.0 2.0 0.00 0.00 0.00 64 1007.7
20260509215107 71 281 0.0 3.0 0.00 0.00 0.00 67 1007.7
20260509214606 72 134 1.0 3.0 0.00 0.00 0.00 60 1007.7
20260509214109 72 250 0.0 1.0 0.00 0.00 0.00 66 1007.7
20260509213610 72 271 0.0 1.0 0.00 0.00 0.00 61 1007.7
20260509213110 72 263 0.0 2.0 0.00 0.00 0.00 62 1007.7
20260509212611 72 254 0.0 6.0 0.00 0.00 0.00 57 1007.7
20260509212113 73 240 3.0 6.0 0.00 0.00 0.00 56 1007.7
20260509211615 73 245 2.0 12.0 0.00 0.00 0.00 57 1007.7
20260509211117 73 250 4.0 12.0 0.00 0.00 0.00 55 1007.6
20260509210507 73 183 3.0 8.0 0.00 0.00 0.00 57 1007.6
20260509210109 73 316 2.0 7.0 0.00 0.00 0.00 55 1007.6
20260509205608 73 137 1.0 8.0 0.00 0.00 0.00 55 1007.8
20260509205109 73 201 6.0 8.0 0.00 0.00 0.00 60 1007.8
20260509204619 72 227 5.0 8.0 0.00 0.00 0.00 59 1007.8
20260509204119 72 206 2.0 7.0 0.00 0.00 0.00 59 1007.6
20260509203622 73 214 1.0 7.0 0.00 0.00 0.00 58 1007.6
20260509203121 73 242 1.0 7.0 0.00 0.00 0.00 58 1007.6
20260509202504 73 256 1.0 9.0 0.00 0.00 0.00 60 1007.5
20260509202104 73 159 3.0 14.0 0.00 0.00 0.00 61 1007.5
20260509201610 73 196 2.0 14.0 0.00 0.00 0.00 64 1007.5
20260509201111 72 202 3.0 10.0 0.00 0.00 0.00 60 1007.8
20260509200503 72 187 3.0 10.0 0.00 0.00 0.00 61 1007.8
20260509200110 72 195 5.0 10.0 0.00 0.00 0.00 62 1007.8
20260509195610 72 202 5.0 11.0 0.00 0.00 0.00 61 1008.0
20260509195107 72 202 7.0 11.0 0.00 0.00 0.00 62 1008.0
20260509194612 71 246 3.0 10.0 0.00 0.00 0.00 63 1008.0
20260509194116 71 207 4.0 10.0 0.00 0.00 0.00 67 1008.3
20260509193620 71 225 5.0 9.0 0.00 0.00 0.00 63 1008.3
20260509193119 71 109 1.0 7.0 0.00 0.00 0.00 62 1008.3
20260509192621 71 207 3.0 7.0 0.00 0.00 0.00 62 1008.5
20260509192120 71 40 1.0 7.0 0.00 0.00 0.00 65 1008.5
20260509191511 70 222 4.0 8.0 0.00 0.00 0.00 64 1008.5
20260509191105 70 172 2.0 8.0 0.00 0.00 0.00 63 1008.8
20260509190518 69 261 1.0 3.0 0.00 0.00 0.00 64 1008.8
20260509190118 70 277 0.0 2.0 0.00 0.00 0.00 63 1008.8
20260509185619 70 278 0.0 2.0 0.00 0.00 0.00 66 1008.6
20260509185120 70 217 0.0 4.0 0.00 0.00 0.00 66 1008.6
20260509184507 70 15 1.0 4.0 0.00 0.00 0.00 63 1008.6
20260509184107 70 223 0.0 2.0 0.00 0.00 0.00 67 1009.0
20260509183608 69 303 0.0 3.0 0.00 0.00 0.00 69 1009.0
20260509183110 69 101 0.0 3.0 0.00 0.00 0.00 66 1009.0
20260509182612 68 298 0.0 2.0 0.00 0.00 0.00 67 1009.0
20260509182112 68 306 0.0 3.0 0.00 0.00 0.00 66 1009.0
20260509181623 67 52 1.0 3.0 0.00 0.00 0.00 68 1009.0
20260509181115 67 71 1.0 4.0 0.00 0.00 0.00 67 1009.6
20260509180507 66 63 1.0 4.0 0.00 0.00 0.00 68 1009.6
20260509180107 66 36 0.0 4.0 0.00 0.00 0.00 67 1009.6
20260509175610 66 355 0.0 3.0 0.00 0.00 0.00 68 1009.9
20260509175112 66 18 1.0 2.0 0.00 0.00 0.00 71 1009.9
20260509174613 66 300 0.0 6.0 0.00 0.00 0.00 68 1009.9
20260509174113 66 34 3.0 7.0 0.00 0.00 0.00 68 1010.0
20260509173617 66 14 0.0 3.0 0.00 0.00 0.00 68 1010.0
20260509173116 66 348 1.0 6.0 0.00 0.00 0.00 68 1010.0
20260509172616 67 21 3.0 7.0 0.00 0.00 0.00 67 1010.0
20260509172119 67 324 3.0 8.0 0.00 0.00 0.00 67 1010.0
20260509171619 67 360 4.0 8.0 0.00 0.00 0.00 67 1010.0
20260509171119 67 276 0.0 6.0 0.00 0.00 0.00 65 1010.0
20260509170513 67 222 2.0 6.0 0.00 0.00 0.00 68 1010.0
20260509170114 67 158 3.0 6.0 0.00 0.00 0.00 67 1010.0
20260509165616 67 260 1.0 4.0 0.00 0.00 0.00 67 1010.1
20260509165115 67 337 1.0 6.0 0.00 0.00 0.00 65 1010.1
20260509164617 67 216 2.0 7.0 0.00 0.00 0.00 67 1010.1
20260509164118 66 189 4.0 7.0 0.00 0.00 0.00 68 1010.2
20260509163509 66 317 1.0 5.0 0.00 0.00 0.00 67 1010.2
20260509163008 66 294 1.0 4.0 0.00 0.00 0.00 68 1010.2
20260509162606 66 310 0.0 3.0 0.00 0.00 0.00 66 1010.1
20260509162107 66 59 0.0 3.0 0.00 0.00 0.00 65 1010.1
20260509161607 66 17 1.0 3.0 0.00 0.00 0.00 70 1010.1
20260509161106 66 351 1.0 3.0 0.00 0.00 0.00 68 1010.2
20260509160516 67 317 0.0 4.0 0.00 0.00 0.00 64 1010.2
20260509160116 67 240 1.0 4.0 0.00 0.00 0.00 68 1010.2
20260509155503 67 79 1.0 4.0 0.00 0.00 0.00 66 1010.4
20260509155103 67 202 1.0 4.0 0.00 0.00 0.00 62 1010.4
20260509154607 66 312 1.0 5.0 0.00 0.00 0.00 66 1010.4
20260509154110 66 209 1.0 5.0 0.00 0.00 0.00 66 1010.4
20260509153612 65 225 1.0 6.0 0.00 0.00 0.00 67 1010.4
20260509153111 65 229 1.0 6.0 0.00 0.00 0.00 65 1010.4
20260509152618 64 307 0.0 7.0 0.00 0.00 0.00 67 1010.6
20260509152004 64 205 3.0 7.0 0.00 0.00 0.00 67 1010.6
20260509151606 64 243 1.0 6.0 0.00 0.00 0.00 66 1010.6
20260509151106 64 84 1.0 6.0 0.00 0.00 0.00 67 1010.6
20260509150517 64 102 2.0 6.0 0.00 0.00 0.00 65 1010.6
20260509150118 64 207 2.0 7.0 0.00 0.00 0.00 68 1010.6
20260509145621 63 240 3.0 7.0 0.00 0.00 0.00 67 1010.7
20260509145122 63 192 2.0 7.0 0.00 0.00 0.00 67 1010.7
20260509144514 63 206 3.0 6.0 0.00 0.00 0.00 68 1010.7
20260509144104 63 184 2.0 5.0 0.00 0.00 0.00 69 1011.0
20260509143606 62 183 1.0 6.0 0.00 0.00 0.00 73 1011.0
20260509143134 61 256 3.0 8.0 0.00 0.00 0.00 68 1011.0
20260509142612 61 116 4.0 8.0 0.00 0.00 0.00 70 1011.1
20260509142114 61 360 1.0 5.0 0.00 0.00 0.00 71 1011.1
20260509141619 60 360 2.0 4.0 0.00 0.00 0.00 70 1011.1
20260509141125 60 360 1.0 6.0 0.00 0.00 0.00 72 1011.0
20260509140509 60 360 1.0 4.0 0.00 0.00 0.00 69 1011.0
20260509140108 60 360 0.0 6.0 0.00 0.00 0.00 72 1011.0
20260509135609 59 360 3.0 6.0 0.00 0.00 0.00 71 1011.0
20260509135116 59 360 2.0 5.0 0.00 0.00 0.00 71 1011.0
20260509134617 59 360 3.0 8.0 0.00 0.00 0.00 72 1011.0
20260509134122 59 360 3.0 10.0 0.00 0.00 0.00 69 1011.1
20260509133509 59 360 3.0 7.0 0.00 0.00 0.00 70 1011.1
20260509133104 59 360 2.0 7.0 0.00 0.00 0.00 71 1011.1
20260509132606 59 360 2.0 7.0 0.00 0.00 0.00 71 1011.1
20260509132114 59 360 2.0 7.0 0.00 0.00 0.00 69 1011.1
20260509131617 59 360 1.0 7.0 0.00 0.00 0.00 70 1011.1
20260509131118 59 360 2.0 6.0 0.00 0.00 0.00 68 1011.1
20260509130508 59 360 3.0 6.0 0.00 0.00 0.00 70 1011.1
20260509130108 59 360 1.0 4.0 0.00 0.00 0.00 69 1011.1
20260509125612 59 360 2.0 7.0 0.00 0.00 0.00 69 1011.2
20260509125114 59 360 3.0 7.0 0.00 0.00 0.00 68 1011.2
20260509124614 59 360 0.0 4.0 0.00 0.00 0.00 68 1011.2
20260509124114 59 360 1.0 4.0 0.00 0.00 0.00 67 1011.1
20260509123614 59 360 0.0 3.0 0.00 0.00 0.00 69 1011.1
20260509123132 59 360 0.0 1.0 0.00 0.00 0.00 68 1011.1
20260509122504 59 360 0.0 2.0 0.00 0.00 0.00 67 1010.9
20260509122105 58 360 0.0 5.0 0.00 0.00 0.00 70 1010.9
20260509121621 58 360 0.0 5.0 0.00 0.00 0.00 69 1010.9
20260509121108 58 360 1.0 7.0 0.00 0.00 0.00 67 1010.8
20260509120522 58 360 3.0 7.0 0.00 0.00 0.00 69 1010.8
20260509120119 58 360 2.0 7.0 0.00 0.00 0.00 68 1010.8
20260509115621 58 360 1.0 7.0 0.00 0.00 0.00 70 1010.8
20260509115009 57 360 3.0 8.0 0.00 0.00 0.00 69 1010.8
20260509114607 58 360 2.0 9.0 0.00 0.00 0.00 70 1010.8
20260509114109 58 360 4.0 9.0 0.00 0.00 0.00 70 1010.7
20260509113608 58 360 2.0 7.0 0.00 0.00 0.00 69 1010.7
20260509113113 58 360 2.0 7.0 0.00 0.00 0.00 68 1010.7
20260509112612 58 360 1.0 9.0 0.00 0.00 0.00 68 1010.5
20260509112115 58 360 1.0 9.0 0.00 0.00 0.00 67 1010.5
20260509111620 58 360 3.0 6.0 0.00 0.00 0.00 67 1010.5
20260509111123 58 360 3.0 7.0 0.00 0.00 0.00 67 1010.6
20260509110516 58 360 4.0 11.0 0.00 0.00 0.00 66 1010.6
20260509110116 57 360 3.0 11.0 0.00 0.00 0.00 66 1010.6
20260509105618 57 360 3.0 9.0 0.00 0.00 0.00 66 1010.3
20260509105007 57 360 4.0 7.0 0.00 0.00 0.00 67 1010.3
20260509104607 57 360 2.0 7.0 0.00 0.00 0.00 67 1010.3
20260509104109 56 360 2.0 6.0 0.00 0.00 0.00 68 1010.3
20260509103612 57 360 2.0 7.0 0.00 0.00 0.00 70 1010.3
20260509103113 57 360 3.0 7.0 0.00 0.00 0.00 67 1010.3
20260509102619 57 360 2.0 8.0 0.00 0.00 0.00 67 1010.2
20260509102005 57 360 3.0 10.0 0.00 0.00 0.00 65 1010.2
20260509101625 57 360 4.0 10.0 0.00 0.00 0.00 67 1010.2
20260509101106 57 360 4.0 9.0 0.00 0.00 0.00 67 1010.2
20260509100517 56 360 1.0 8.0 0.00 0.00 0.00 67 1010.2
20260509100117 56 360 3.0 10.0 0.00 0.00 0.00 66 1010.2
20260509095618 56 360 5.0 10.0 0.00 0.00 0.00 66 1010.1
20260509095118 56 360 4.0 7.0 0.00 0.00 0.00 70 1010.1
20260509094621 56 360 3.0 8.0 0.00 0.00 0.00 69 1010.1
20260509094124 56 360 2.0 9.0 0.00 0.00 0.00 68 1010.2
20260509093504 56 360 2.0 7.0 0.00 0.00 0.00 69 1010.2
20260509093108 56 360 1.0 9.0 0.00 0.00 0.00 69 1010.2
20260509092605 56 360 3.0 9.0 0.00 0.00 0.00 70 1010.5
20260509092109 56 360 2.0 5.0 0.00 0.00 0.00 69 1010.5
20260509091608 56 360 2.0 7.0 0.00 0.00 0.00 70 1010.5
20260509091118 56 360 2.0 7.0 0.00 0.00 0.00 67 1010.6
20260509090508 56 360 3.0 5.0 0.00 0.00 0.00 70 1010.6
20260509090106 56 360 1.0 7.0 0.00 0.00 0.00 69 1010.6
20260509085605 56 360 2.0 7.0 0.00 0.00 0.00 68 1010.7
20260509085107 56 360 2.0 7.0 0.00 0.00 0.00 70 1010.7
20260509084608 56 360 1.0 7.0 0.00 0.00 0.00 68 1010.7
20260509084111 56 360 3.0 7.0 0.00 0.00 0.00 68 1010.8
20260509083616 56 360 2.0 7.0 0.00 0.00 0.00 68 1010.8
20260509083115 56 360 2.0 7.0 0.00 0.00 0.00 67 1010.8
20260509082615 56 360 1.0 8.0 0.00 0.00 0.00 67 1011.0
20260509082118 56 360 3.0 8.0 0.00 0.00 0.00 65 1011.0
20260509081622 56 360 2.0 9.0 0.00 0.00 0.00 66 1011.0
20260509081119 56 360 4.0 9.0 0.00 0.00 0.00 66 1011.2
20260509080517 57 360 2.0 6.0 0.00 0.00 0.00 66 1011.2
20260509080117 57 360 3.0 8.0 0.00 0.00 0.00 64 1011.2
20260509075620 57 360 3.0 8.0 0.00 0.00 0.00 65 1011.2
20260509075123 57 360 2.0 7.0 0.00 0.00 0.00 63 1011.2
20260509074621 57 360 3.0 7.0 0.00 0.00 0.00 65 1011.2
20260509074005 57 360 1.0 8.0 0.00 0.00 0.00 64 1011.2
20260509073604 57 360 2.0 9.0 0.00 0.00 0.00 64 1011.2
20260509073108 57 360 3.0 10.0 0.00 0.00 0.00 63 1011.2
20260509072607 58 360 5.0 10.0 0.00 0.00 0.00 62 1011.1
20260509072107 58 360 3.0 9.0 0.00 0.00 0.00 61 1011.1
20260509071608 58 360 2.0 11.0 0.00 0.00 0.00 61 1011.1
20260509071106 58 360 4.0 11.0 0.00 0.00 0.00 60 1011.1
20260509070520 58 360 3.0 10.0 0.00 0.00 0.00 60 1011.1
20260509070119 58 360 2.0 11.0 0.00 0.00 0.00 61 1011.1
20260509065619 58 360 2.0 11.0 0.00 0.00 0.00 61 1011.1
20260509065120 58 360 5.0 10.0 0.00 0.00 0.00 61 1011.1
20260509064621 58 360 4.0 11.0 0.00 0.00 0.00 61 1011.1
20260509064123 58 360 3.0 9.0 0.00 0.00 0.00 60 1011.2
20260509063622 58 360 4.0 10.0 0.00 0.00 0.00 60 1011.2
20260509063117 58 360 3.0 11.0 0.00 0.00 0.00 61 1011.2
20260509062626 58 360 3.0 11.0 0.00 0.00 0.00 61 1011.4
20260509062125 58 360 5.0 11.0 0.00 0.00 0.00 62 1011.4
20260509061502 58 360 3.0 6.0 0.00 0.00 0.00 61 1011.4
20260509061106 58 360 3.0 10.0 0.00 0.00 0.00 61 1011.5
20260509060514 58 360 4.0 10.0 0.00 0.00 0.00 61 1011.5
20260509060114 58 360 2.0 8.0 0.00 0.00 0.00 60 1011.5
20260509055620 58 360 3.0 11.0 0.00 0.00 0.00 59 1011.4
20260509055119 58 360 4.0 11.0 0.00 0.00 0.00 60 1011.4
20260509054619 58 360 4.0 9.0 0.00 0.00 0.00 61 1011.4
20260509054122 58 360 2.0 7.0 0.00 0.00 0.00 60 1011.5
20260509053620 58 360 1.0 7.0 0.00 0.00 0.00 60 1011.5
20260509053007 58 360 4.0 8.0 0.00 0.00 0.00 60 1011.5
20260509052607 58 360 4.0 9.0 0.00 0.00 0.00 60 1011.7
20260509052109 58 360 3.0 9.0 0.00 0.00 0.00 59 1011.7
20260509051611 58 360 2.0 9.0 0.00 0.00 0.00 60 1011.7
20260509051113 58 360 3.0 12.0 0.00 0.00 0.00 61 1011.6
20260509050522 58 360 3.0 12.0 0.00 0.00 0.00 61 1011.6
20260509050120 58 360 4.0 9.0 0.00 0.00 0.00 59 1011.6
20260509045508 57 360 1.0 5.0 0.00 0.00 0.00 60 1011.5
20260509045108 57 360 2.0 6.0 0.00 0.00 0.00 61 1011.5
20260509044608 57 360 3.0 6.0 0.00 0.00 0.00 60 1011.5
20260509044111 57 360 1.0 9.0 0.00 0.00 0.00 61 1011.7
20260509043615 57 360 1.0 9.0 0.00 0.00 0.00 61 1011.7
20260509043115 57 360 3.0 7.0 0.00 0.00 0.00 61 1011.7
20260509042618 57 360 3.0 8.0 0.00 0.00 0.00 61 1011.6
20260509042009 57 360 2.0 7.0 0.00 0.00 0.00 61 1011.6
20260509041621 57 360 1.0 7.0 0.00 0.00 0.00 62 1011.6
20260509041109 57 360 3.0 6.0 0.00 0.00 0.00 61 1011.7
20260509040521 57 360 2.0 6.0 0.00 0.00 0.00 61 1011.7
20260509040121 57 360 1.0 8.0 0.00 0.00 0.00 62 1011.7
20260509035506 57 360 3.0 9.0 0.00 0.00 0.00 61 1011.8
20260509035105 57 360 3.0 9.0 0.00 0.00 0.00 61 1011.8
20260509034605 57 360 2.0 9.0 0.00 0.00 0.00 61 1011.8
20260509034107 57 360 0.0 7.0 0.00 0.00 0.00 61 1011.8
20260509033610 57 360 2.0 6.0 0.00 0.00 0.00 61 1011.8
20260509033115 57 360 2.0 8.0 0.00 0.00 0.00 61 1011.8
20260509032614 57 360 2.0 7.0 0.00 0.00 0.00 62 1011.8
20260509032113 57 360 2.0 6.0 0.00 0.00 0.00 62 1011.8
20260509031504 57 360 1.0 5.0 0.00 0.00 0.00 62 1011.8
20260509031105 57 360 1.0 7.0 0.00 0.00 0.00 62 1011.8
20260509030517 57 360 0.0 4.0 0.00 0.00 0.00 62 1011.8
20260509030116 57 360 0.0 4.0 0.00 0.00 0.00 62 1011.8
20260509025618 57 360 1.0 5.0 0.00 0.00 0.00 61 1012.0
20260509025117 57 360 1.0 5.0 0.00 0.00 0.00 62 1012.0
20260509024625 57 360 2.0 5.0 0.00 0.00 0.00 62 1012.0
20260509024002 58 360 0.0 5.0 0.00 0.00 0.00 61 1012.0
20260509023601 58 360 2.0 5.0 0.00 0.00 0.00 62 1012.0
20260509023114 58 360 2.0 5.0 0.00 0.00 0.00 61 1012.0
20260509022607 58 360 0.0 5.0 0.00 0.00 0.00 62 1012.0
20260509022105 58 360 0.0 5.0 0.00 0.00 0.00 61 1012.0
20260509021612 58 360 1.0 5.0 0.00 0.00 0.00 61 1012.0
20260509021109 58 360 1.0 4.0 0.00 0.00 0.00 60 1011.9
20260509020519 58 360 1.0 4.0 0.00 0.00 0.00 60 1011.9
20260509020119 58 360 0.0 3.0 0.00 0.00 0.00 60 1011.9
20260509015618 59 360 1.0 7.0 0.00 0.00 0.00 60 1011.8
20260509015118 59 360 0.0 7.0 0.00 0.00 0.00 60 1011.8
20260509014511 59 360 1.0 4.0 0.00 0.00 0.00 60 1011.8
20260509014104 59 360 2.0 4.0 0.00 0.00 0.00 59 1011.8
20260509013608 59 360 0.0 5.0 0.00 0.00 0.00 59 1011.8
20260509013110 59 360 1.0 5.0 0.00 0.00 0.00 58 1011.8
20260509012607 59 360 0.0 3.0 0.00 0.00 0.00 58 1011.8
20260509012107 60 360 1.0 3.0 0.00 0.00 0.00 57 1011.8
20260509011606 61 360 0.0 4.0 0.00 0.00 0.00 55 1011.8
20260509011110 61 360 0.0 4.0 0.00 0.00 0.00 55 1011.8
20260509010522 62 203 0.0 4.0 0.00 0.00 0.00 54 1011.8
20260509010119 62 203 0.0 6.0 0.00 0.00 0.00 53 1011.8
20260509005620 62 220 1.0 6.0 0.00 0.00 0.00 53 1011.6
20260509005124 63 204 1.0 4.0 0.00 0.00 0.00 54 1011.6
20260509004510 63 196 1.0 5.0 0.00 0.00 0.00 53 1011.6
20260509004104 63 161 1.0 5.0 0.00 0.00 0.00 52 1011.5
20260509003610 64 179 2.0 4.0 0.00 0.00 0.00 53 1011.5
20260509003113 64 229 2.0 4.0 0.00 0.00 0.00 52 1011.5
20260509002613 64 211 0.0 4.0 0.00 0.00 0.00 52 1011.4
20260509002116 64 222 1.0 4.0 0.00 0.00 0.00 52 1011.4
20260509001614 64 217 1.0 6.0 0.00 0.00 0.00 51 1011.4
20260509001115 64 175 2.0 6.0 0.00 0.00 0.00 51 1011.2
20260509000512 64 215 1.0 6.0 0.00 0.00 0.00 52 1011.2
20260509000129 64 192 2.0 6.0 0.00 0.00 0.00 49 1011.2
20260508235609 65 228 1.0 6.0 0.00 0.00 0.00 52 1011.2
20260508235112 65 186 2.0 8.0 0.00 0.00 0.00 51 1011.2
20260508234613 65 243 3.0 8.0 0.00 0.00 0.00 50 1011.2
20260508234113 66 180 2.0 8.0 0.00 0.00 0.00 49 1011.1
20260508233612 66 236 2.0 8.0 0.00 0.00 0.00 49 1011.1
20260508233129 66 225 3.0 8.0 0.00 0.00 0.00 47 1011.1
20260508232619 66 225 3.0 8.0 0.00 0.00 0.00 47 1011.0
20260508232119 67 202 4.0 9.0 0.00 0.00 0.00 47 1011.0
20260508231620 67 220 2.0 8.0 0.00 0.00 0.00 45 1011.0
20260508231123 67 163 2.0 9.0 0.00 0.00 0.00 45 1010.8
20260508230516 67 174 3.0 9.0 0.00 0.00 0.00 47 1010.8
20260508230115 68 226 1.0 4.0 0.00 0.00 0.00 43 1010.8
20260508225618 68 216 2.0 4.0 0.00 0.00 0.00 42 1010.8
20260508225120 68 202 1.0 4.0 0.00 0.00 0.00 44 1010.8
20260508224620 68 204 0.0 5.0 0.00 0.00 0.00 45 1010.8